Regional Weather Roundup
Issued by NWS

Home | Current Version | Previous Version | Graphics & Text | Print | Product List | Glossary On
Versions: 1 2 3 4 5 6 7 8 9 10 11 12 13 14 15 16 17 18 19 20 21 22 23 24 25 26 27 28 29 30 31 32 33 34 35 36 37 38 39 40 41 42 43 44 45 46 47 48 49 50
928
ASUS45 KBOU 111710
RWRCO

WEATHER ROUNDUP FOR COLORADO
NATIONAL WEATHER SERVICE DENVER/BOULDER CO
1000 AM MST MON DEC 11 2017

NOTE: "FAIR" INDICATES FEW OR NO CLOUDS BELOW 12000 FEET WITH NO
SIGNIFICANT WEATHER AND/OR OBSTRUCTIONS TO VISIBILITY.

COZ001>005-013-030-031-111800-
...NORTHWEST COLORADO...

CITY           SKY/WX    TMP DP  RH WIND       PRES   REMARKS
CRAIG          FAIR      18  11  74 CALM      30.56S
HAYDEN         FAIR      24  10  55 E12       30.56S WCI  13
MEEKER         FAIR      29   9  43 CALM      30.55S
RABBIT EARS PA FAIR      27   1  33 W7        30.55S WCI  19
STEAMBOAT SPGS FAIR      18  10  70 CALM      30.56S
WALDEN         FAIR      16   1  53 CALM      30.53R
$$

COZ006>008-011-111800-
...WEST CENTRAL VALLEYS...

CITY           SKY/WX    TMP DP  RH WIND       PRES   REMARKS
GRAND JUNCTION FAIR      30   3  31 CALM      30.57R
MONTROSE       FAIR      34  -1  22 CALM      30.58F
EAGLE          FAIR      15   6  67 CALM      30.67S
RIFLE          FAIR      28   6  39 CALM      30.59S
DELTA          FAIR      28   0  30 E6        30.58F WCI  22
NUCLA          FAIR      28  -8  20 CALM      30.58S
$$

COZ017>023-064>068-111800-
...SOUTHWEST COLORADO...

CITY           SKY/WX    TMP DP  RH WIND       PRES   REMARKS
DURANGO        FAIR      32   4  30 CALM      30.48F
CORTEZ         FAIR      31   3  30 CALM      30.51S
PAGOSA SPRINGS FAIR      40  -2  17 CALM      30.48S
TELLURIDE      FAIR      40  -6  14 CALM      30.59R
WOLF CREEK PAS FAIR      32   0  25 N7G18     30.66R WCI  26
$$

COZ009-010-012-014-032>034-037-058>063-111800-
...CENTRAL COLORADO...

CITY           SKY/WX    TMP DP  RH WIND       PRES   REMARKS
ASPEN          FAIR      34   2  25 CALM      30.55R
BUENA VISTA    FAIR      38  -1  19 CALM      30.49S
COPPER MTN     NOT AVBL
BERTHOUD PASS  FAIR      18   7  62 NW25G33   30.54R WCI  -1
COTTONWOOD PAS FAIR      43 -13   9 CALM      30.52S
GUNNISON       FAIR      17   0  47 CALM      30.64F
KREMMLING      FAIR      14  10  85 CALM      30.65F
LEADVILLE      FAIR      35  -8  15 NE8       30.53R WCI  29
MONARCH PASS   FAIR      27 -11  18 SW25G33   30.67F WCI  11
SALIDA         FAIR      35  -1  21 N6        30.55F WCI  30
SUNLIGHT       FAIR      30 -18  11 W7        30.64R WCI  23
WILKERSON PASS FAIR      34 -11  14 NW8G21    30.56R WCI  27
$$

COZ069>075-111800-
...SAN LUIS VALLEY/SANGRE DE CRISTO MOUNTAINS...

CITY           SKY/WX    TMP DP  RH WIND       PRES   REMARKS
ALAMOSA        FAIR      29  -2  26 CALM      30.53R
DEL NORTE      FAIR      36   0  21 SE3       30.53R
LA VETA PASS   FAIR      34  -6  18 SW13        N/A  WCI  25
SAGUACHE       FAIR      30  -6  21 CALM      30.54S
$$

COZ035-036-038>040-111800-
...NORTHERN COLORADO FRONT RANGE...

CITY           SKY/WX    TMP DP  RH WIND       PRES   REMARKS
DENVER INTL AP FAIR      50   2  14 E8        30.34R
DMNS CITY PARK NOT AVBL
AURORA         MOSUNNY   54  -6   8 NW5       30.35R
FRONT RANGE AP MOSUNNY   50   3  14 E6        30.35R
ERIE MUNI ARPT FAIR      42   6  22 CALM      30.40R
BOULDER MUN AP FAIR      46   5  18 NE3       30.34S
CENTENNIAL     FAIR      52   9  17 CALM      30.35R
BROOMFIELD     MOSUNNY   48   1  14 N12       30.34R
FORT COLLINS   FAIR      46   7  20 VRB3      30.35S
LONGMONT       FAIR      48  12  23 CALM      30.36R
$$

COZ041-046-047-076>085-087-088-111800-
...PIKES PEAK/PALMER DIVIDE AND SOUTHERN FOOTHILLS...

CITY           SKY/WX    TMP DP  RH WIND       PRES   REMARKS
COLO. SPRINGS  FAIR      53  -3  10 S6        30.38R
A. F. ACADEMY  FAIR      53  -5   9 CALM      30.37R
SCHRIEVER AFB  FAIR      53  -6   9 S7        30.38R
CHEYENNE MTN   FAIR      52  -4  10 SE10      30.33R
ELLICOTT         N/A    N/A N/A N/A S9        30.36R
FALCON         FAIR      54  -9   7 S10G17    30.40S
FORT CARSON    FAIR      53  -4   9 NE3       30.35S
LIMON          FAIR      49  -1  12 CALM      30.36R
MONUMENT HILL  FAIR      52   0  11 W7        30.40R
CANON CITY     FAIR      54   1  12 W13G18    30.34F
WALSENBURG     FAIR      59   0   9 W12       30.37F
TRINIDAD       FAIR      49   7  18 W10       30.38F
$$

COZ042>045-048>051-090-091-111800-
...NORTHEAST COLORADO...

CITY           SKY/WX    TMP DP  RH WIND       PRES   REMARKS
GREELEY ARPT   FAIR      41  10  28 CALM      30.36R
AKRON          FAIR      49   5  16 N22G32    30.33R
BURLINGTON     FAIR      52  10  18 N25G37    30.31S
WRAY           FAIR      54   9  16 NW23G32   30.30S
YUMA           FAIR      50  10  20 NW23G29   30.31S
STERLING       FAIR      52  12  20 N24       30.34R
HOLYOKE        FAIR      54  14  20 NW20G26   30.29R
FORT MORGAN    FAIR      53   2  12 NW20G32   30.36R
$$

COZ086-089-092>099-111800-
...SOUTHEAST COLORADO...

CITY           SKY/WX    TMP DP  RH WIND       PRES   REMARKS
PUEBLO         FAIR      45   7  21 E3        30.35S
LA JUNTA       FAIR      46   5  18 W7        30.37R
LAMAR          FAIR      45   7  21 W12       30.35R
SPRINGFIELD      N/A     55   6  14 N17       30.33R
$$




USA.gov is the U.S. government's official web portal to all federal, state and local government web resources and services.